Location: Great Malvern
(52.1167°N, 2.3167°W)
Time: 07:41:06
(UTC+00:00)

Okean 1-7 Rocket - Pass Details

Date: 18 September 2020
Orbit: 616 x 649 km, 82.5° (Epoch: 22 October)

Event Time Altitude Azimuth Distance (km) Brightness Sun altitude
Rises 20:40:09 0° 352° (N) 2,980 7.7 -21.6°
Reaches altitude 10° 20:42:30 10° 359° (N) 2,066 6.7 -21.9°
Enters shadow 20:46:42 47° 63° (ENE) 866 4.0 -22.5°
